Regional Weather Roundup
Issued by NWS Midland/Odessa, TX

Skip options and go directly to product.
Home | Oldest Version | Next Version | Current Version | All | Text Only | Save Text | Print | Product List | Glossary On

Skip product version selection by date and time.   
290
ASUS44 KMAF 260910
RWRMAF
MIDLAND AREA WEATHER ROUNDUP
NATIONAL WEATHER SERVICE MIDLAND TX
400 AM CDT FRI AUG 26 2016

...IN SOUTHWEST TEXAS AND SOUTHEAST NEW MEXICO...

CITY           SKY/WX    TMP DP  RH WIND       PRES   REMARKS
ALPINE         CLOUDY    64  62  93 CALM      30.22S
ANDREWS        NOT AVBL
ARTESIA        FAIR      63  63 100 CALM      30.14F
BIG SPRING     FAIR      73  67  81 CALM      30.13S
CARLSBAD       FAIR      63  62  97 N7        30.11F
DRYDEN           N/A     75  68  78 E15       30.04S
FORT STOCKTON  CLOUDY    68  66  93 CALM      30.11F
GUAD PASS      FAIR      62  50  64 NE20      30.22F
HOBBS          MOCLDY    66  66 100 N5        30.17S
MARFA          MOCLDY   N/A N/A N/A NE3       30.19S
MIDLAND AIRPK  CLOUDY    72  61  70 E5        30.13S
MIDLAND INTL   LGT RAIN  72  61  68 NE10G21   30.12S
ODESSA         CLOUDY    69  63  81 NE8       30.13S
PECOS          FAIR      68  65  91 N6        30.08F
PRESIDIO       NOT AVBL
SEMINOLE       CLOUDY    65  63  93 E5        30.16F
SNYDER           N/A     67  63  85 N10       30.11S
WINK           MOCLDY    69  66  90 MISG      30.09S
$$
...OTHER STATIONS IN TEXAS...

CITY           SKY/WX    TMP DP  RH WIND       PRES   REMARKS
ABILENE        FAIR      73  66  78 SE9       30.08R
AMARILLO       CLOUDY    60  59  96 CALM      30.16R
AUSTIN         FAIR      75  74  96 CALM      30.03F
BROWNSVILLE    FAIR      77  76  96 CALM      29.98S
CORPUS CHRISTI FAIR      79  76  90 SE3       29.98F
DALLAS FTW     MOCLDY    79  72  79 S8        30.02F
DEL RIO        FAIR      77  72  84 E7        30.01S
EL PASO        FAIR      70  58  65 CALM      30.09F
HOUSTON INT    CLOUDY    75  73  93 NE5       30.02S
LUBBOCK        CLOUDY    65  62  90 E7        30.15R
SAN ANGELO     FAIR      71  64  78 E6        30.06S
SAN ANTONIO    MOCLDY    77  74  90 S7        30.04F
WACO           FAIR      77  75  93 SE8       30.03F
WICHITA FALLS  NOT AVBL
$$
...OTHER LOCATIONS IN NEW MEXICO...

CITY           SKY/WX    TMP DP  RH WIND       PRES   REMARKS
ALAMAGORDO     FAIR      66  50  55 CALM      30.13S
ALBUQUERQUE    MOCLDY    67  47  48 N5        30.20S
CANNON AFB     CLOUDY    62  62  99 E5        30.15S
CLOVIS         FAIR      61  55  82 E8        30.14F
HOLLOMAN AFB   NOT AVBL
ROSWELL        FAIR      64  58  80 CALM      30.14F
RUIDOSO          N/A     54  50  87 CALM      30.32S
SANTA FE       CLOUDY    56  53  90 N5        30.27F
TRUTH OR CONSE FAIR      68  53  58 S8        30.14S
TUCUMCARI      MOCLDY    62  59  90 E7        30.15F
$$

USA.gov is the U.S. government's official web portal to all federal, state and local government web resources and services.